Flag for Austria Weather past 2 weeks in Marchtrenk, Upper Austria, Austria

Now
50 °F

Light rain. Passing clouds.


Feels Like: 43 °F
Forecast: 39 / 49 °F
Wind: 21 mph from West

Location: Linz / Hoersching-Flughafen

Current Time: Dec 20, 2014 at 12:33:28 AM

Latest Report: Dec 19, 2014 at 11:50 PM


Visibility: N/A

Pressure: 30.07 "Hg

Humidity: 82%

Dew point: 45 °F

Location of MarchtrenkLocation

Historic Weather in Marchtrenk — Graph

°F

Marchtrenk temperature yesterday

Maximum temperature yesterday: 57 °F (at 1:50 PM)
Minimum temperature yesterday: 46 °F (at 5:50 PM)
Average temperature yesterday: 52 °F

Past Weeks' High & Low Weather Summary

 TemperatureHumidityPressure
High57 °F (Dec 19, 1:50 PM)100% (Dec 6, 10:50 PM)30.42 "Hg (Dec 6, 10:50 PM)
Low30 °F (Dec 9, 8:50 PM)50% (Dec 12, 1:20 PM)29.83 "Hg (Dec 12, 2:20 PM)
Average39 °F87%30.06 "Hg
* Reported Dec 4 11:20 PM — Dec 19 11:20 PM, Marchtrenk, Weather by CustomWeather, © 2014

Note: Actual official high and low records may vary slightly from our data, if they occured in-between our weather recording intervals... More about our weather records

Advertising

Marchtrenk weather history for previous 24 hours

 ConditionsComfort  
Time TempWeatherWind HumidityBarometerVisibility
11:20 PM
Dec 19
50 °FRain. Passing clouds.24 mph88%30.07 "HgN/A
10:50 PM50 °FRain showers. Passing clouds.16 mph88%30.07 "HgN/A
10:20 PM50 °FRain showers. Passing clouds.21 mph88%30.04 "HgN/A
9:50 PM52 °FSprinkles. Passing clouds.18 mph77%30.04 "HgN/A
9:20 PM54 °FSprinkles. Passing clouds.18 mph67%30.04 "HgN/A
8:50 PM54 °FPartly cloudy.20 mph63%30.01 "HgN/A
8:20 PM50 °FPassing clouds.9 mph76%30.01 "HgN/A
7:50 PM48 °FPassing clouds.6 mph82%30.01 "HgN/A
7:20 PM50 °FPassing clouds.5 mph76%30.01 "HgN/A
6:50 PM50 °FPassing clouds.8 mph76%30.01 "HgN/A
6:20 PM48 °FPassing clouds.5 mph87%30.01 "HgN/A
5:50 PM46 °FPartly cloudy.2 mph87%30.01 "HgN/A
5:20 PM50 °FPassing clouds.3 mph82%30.01 "HgN/A
4:50 PM50 °FPassing clouds.3 mph82%30.01 "HgN/A
4:20 PM52 °FPassing clouds.2 mph77%30.01 "HgN/A
3:50 PM54 °FScattered clouds.5 mph72%30.01 "HgN/A
3:20 PM52 °FScattered clouds.6 mph77%30.01 "HgN/A
2:50 PM55 °FBroken clouds.8 mph72%30.01 "HgN/A
2:20 PM57 °FBroken clouds.13 mph67%30.01 "HgN/A
1:50 PM57 °FScattered clouds.8 mph67%30.04 "HgN/A
1:20 PM55 °FScattered clouds.6 mph72%30.04 "HgN/A
12:50 PM55 °FScattered clouds.7 mph72%30.07 "HgN/A
12:20 PM54 °FScattered clouds.12 mph77%30.07 "HgN/A
11:50 AM54 °FScattered clouds.13 mph72%30.09 "HgN/A
11:20 AM54 °FPartly sunny.14 mph72%30.09 "HgN/A
10:50 AM52 °FPartly sunny.13 mph77%30.09 "HgN/A
10:20 AM52 °FPartly sunny.12 mph77%30.09 "HgN/A
9:50 AM52 °FBroken clouds.10 mph77%30.12 "HgN/A
9:20 AM52 °FPartly sunny.14 mph72%30.09 "HgN/A
8:50 AM52 °FPartly sunny.16 mph72%30.09 "HgN/A
8:20 AM52 °FScattered clouds.16 mph72%30.12 "HgN/A
7:50 AM52 °FScattered clouds.15 mph72%30.12 "HgN/A
7:20 AM52 °FPassing clouds.20 mph72%30.09 "HgN/A
6:50 AM52 °FPassing clouds.23 mph72%30.09 "HgN/A
6:20 AM50 °FPassing clouds.14 mph82%30.09 "HgN/A
5:50 AM50 °FPassing clouds.16 mph82%30.09 "HgN/A
5:20 AM52 °FPassing clouds.15 mph77%30.09 "HgN/A
4:20 AM54 °FPassing clouds.20 mph77%30.07 "HgN/A
3:50 AM54 °FPassing clouds.21 mph77%30.07 "HgN/A
3:20 AM54 °FPassing clouds.18 mph82%30.07 "HgN/A
2:50 AM54 °FPassing clouds.20 mph82%30.07 "HgN/A
2:20 AM52 °FSprinkles. Partly cloudy.17 mph94%30.07 "HgN/A
1:50 AM54 °FPartly cloudy.22 mph88%30.07 "HgN/A
1:20 AM52 °FPassing clouds.18 mph94%30.07 "Hg4 mi
12:50 AM52 °FPassing clouds.17 mph88%30.07 "HgN/A
12:20 AM52 °FPartly cloudy.14 mph88%30.07 "HgN/A
Weather by CustomWeather, © 2014

See weather overviewHow to use our weather pages